Location: Camps Bay
(33.9517°S, 18.3844°E)
Time: 16:35:32
(UTC+00:00)

Cosmos 968 Rocket - Pass Details

Date: 18 January 2020
Orbit: 741 x 770 km, 74.0° (Epoch: 25 February)

Event Time Altitude Azimuth Distance (km) Brightness Sun altitude
Exits shadow 01:26:06 45° 251° (WSW) 1,043 4.0 -24.8°
Maximum altitude 01:26:09 45° 249° (WSW) 1,043 4.0 -24.8°
Drops below altitude 10° 01:31:14 10° 176° (S) 2,334 6.7 -24.1°
Sets 01:33:45 0° 170° (S) 3,271 7.7 -23.8°
